Minden, LA

5:42 AM CDT on April 29, 2017 (GMT -0500)
Minden

Weather History for KMNE - September, 2013

Change the Weather History Date:

Tuesday, September 3, 2013

  Actual Average (KBAD) Record (KBAD)
Temperature  
Mean Temperature 86 °F -  
Max Temperature 100 °F 87 °F 105 °F (2000)
Min Temperature 74 °F 67 °F 63 °F (2016)
Cooling Degree Days 22    
Growing Degree Days 36 (Base 50)    
Moisture  
Dew Point 68 °F    
Average Humidity 58    
Maximum Humidity 90    
Minimum Humidity 32    
Precipitation  
Precipitation 0.00 in - - ()
Sea Level Pressure  
Sea Level Pressure 29.94 in    
Wind  
Wind Speed 2 mph (NNE)    
Max Wind Speed 15 mph    
Max Gust Speed 18 mph    
Visibility 10 miles    
Events Thunderstorm    
Averages and records for this station are not official NWS values.
T = Trace of Precipitation, MM = Missing Value Source: NWS Daily Summary

Daily Weather History Graph

Daily Weather History Graph

Search for Another Location

Airport or City:

Trip Planner

Search our weather history database for the weather conditions in past years. The results will help you decide how hot, cold, wet, or windy it might be!

Date:

Astronomy

Sep. 03, 2013 Rise Set
Actual Time 6:49 AM CDT 7:34 PM CDT
Civil Twilight 6:24 AM CDT 7:59 PM CDT
Nautical Twilight 5:54 AM CDT 8:29 PM CDT
Astronomical Twilight 5:24 AM CDT 8:59 PM CDT
Moon 5:06 AM CDT (9/3) 6:21 PM CDT (9/3)
Length of Visible Light 13h 35m
Length of Day
12h 45m
Waning Crescent, 3% of the Moon is Illuminated
Sep 3
Waning Crescent
Sep 5
New
Sep 12
First Quarter
Sep 19
Full
Sep 26
Last Quarter

Hourly Weather History & Observations

Time (CDT) Temp. Heat Index Dew Point Humidity Pressure Visibility Wind Dir Wind Speed Gust Speed Precip Events Conditions
12:15 AM 78.1 °F - 70.9 °F 78% 29.92 in 10.0 mi Calm Calm - N/A   Clear
12:35 AM 77.5 °F - 70.9 °F 80% 29.92 in 10.0 mi Calm Calm - N/A   Scattered Clouds
12:55 AM 77.7 °F - 70.7 °F 79% 29.92 in 10.0 mi Calm Calm - N/A   Mostly Cloudy
1:15 AM 77.9 °F - 70.7 °F 78% 29.92 in 10.0 mi Calm Calm - N/A   Mostly Cloudy
1:35 AM 77.7 °F - 70.9 °F 79% 29.92 in 10.0 mi Calm Calm - N/A   Mostly Cloudy
1:55 AM 77.0 °F - 70.9 °F 81% 29.92 in 10.0 mi Calm Calm - N/A   Overcast
2:15 AM 77.4 °F - 71.6 °F 82% 29.92 in 10.0 mi Calm Calm - N/A   Overcast
2:35 AM 77.9 °F - 71.6 °F 81% 29.92 in 10.0 mi Calm Calm - N/A   Overcast
2:55 AM 77.4 °F - 71.6 °F 82% 29.92 in 10.0 mi Calm Calm - N/A   Mostly Cloudy
3:15 AM 76.8 °F - 71.1 °F 82% 29.93 in 10.0 mi Calm Calm - N/A   Mostly Cloudy
3:35 AM 77.2 °F - 70.9 °F 81% 29.93 in 10.0 mi Calm Calm - N/A   Overcast
3:55 AM 76.6 °F - 71.2 °F 83% 29.93 in 10.0 mi Calm Calm - N/A   Overcast
4:15 AM 77.2 °F - 71.4 °F 82% 29.93 in 10.0 mi Calm Calm - N/A   Overcast
4:35 AM 76.8 °F - 71.2 °F 83% 29.93 in 10.0 mi Calm Calm - N/A   Mostly Cloudy
4:55 AM 75.7 °F - 70.9 °F 85% 29.94 in 10.0 mi Calm Calm - N/A   Scattered Clouds
5:15 AM 75.6 °F - 70.7 °F 85% 29.94 in 10.0 mi Calm Calm - N/A   Clear
5:35 AM 75.4 °F - 70.7 °F 85% 29.94 in 10.0 mi Calm Calm - N/A   Clear
5:55 AM 75.2 °F - 70.7 °F 86% 29.94 in 10.0 mi Calm Calm - N/A   Scattered Clouds
6:15 AM 74.1 °F - 70.9 °F 90% 29.94 in 7.0 mi NNE 3.5 mph - N/A   Clear
6:35 AM 74.5 °F - 70.7 °F 88% 29.94 in 10.0 mi Calm Calm - N/A   Clear
6:55 AM 74.1 °F - 70.2 °F 87% 29.95 in 7.0 mi North 5.8 mph - N/A   Clear
7:15 AM 75.2 °F - 70.2 °F 84% 29.95 in 10.0 mi NNE 3.5 mph - N/A   Clear
7:35 AM 75.7 °F - 70.7 °F 84% 29.96 in 10.0 mi Calm Calm - N/A   Clear
7:55 AM 77.0 °F - 71.6 °F 83% 29.96 in 10.0 mi Calm Calm - N/A   Clear
8:15 AM 79.9 °F - 71.1 °F 74% 29.96 in 10.0 mi Calm Calm - N/A   Clear
8:35 AM 81.9 °F 85.8 °F 70.5 °F 68% 29.97 in 10.0 mi Calm Calm - N/A   Clear
8:55 AM 84.4 °F 89.0 °F 70.7 °F 63% 29.97 in 10.0 mi NNW 3.5 mph - N/A   Clear
9:15 AM 86.4 °F 91.4 °F 70.3 °F 59% 29.98 in 10.0 mi NNW 4.6 mph - N/A   Clear
9:35 AM 88.2 °F 93.7 °F 70.7 °F 56% 29.98 in 10.0 mi NE 3.5 mph - N/A   Clear
9:55 AM 89.6 °F 94.3 °F 69.4 °F 51% 29.98 in 10.0 mi North 3.5 mph - N/A   Clear
10:15 AM 90.5 °F 95.1 °F 69.1 °F 49% 29.98 in 10.0 mi Calm Calm - N/A   Clear
10:35 AM 91.6 °F 95.7 °F 68.0 °F 46% 29.98 in 10.0 mi NNE 3.5 mph - N/A   Clear
10:55 AM 92.8 °F 96.6 °F 67.5 °F 43% 29.98 in 10.0 mi NE 4.6 mph - N/A   Clear
11:15 AM 94.1 °F 98.4 °F 67.8 °F 42% 29.98 in 10.0 mi Calm Calm - N/A   Clear
11:35 AM 94.6 °F 98.3 °F 67.1 °F 40% 29.98 in 10.0 mi Calm Calm - N/A   Clear
11:55 AM 95.5 °F 99.4 °F 66.9 °F 39% 29.97 in 10.0 mi Calm Calm - N/A   Scattered Clouds
12:15 PM 95.2 °F 98.3 °F 65.7 °F 38% 29.97 in 10.0 mi North 3.5 mph - N/A   Clear
12:35 PM 95.0 °F 98.5 °F 66.2 °F 39% 29.96 in 10.0 mi North 4.6 mph - N/A   Clear
12:55 PM 96.4 °F 99.4 °F 65.3 °F 36% 29.96 in 10.0 mi South 4.6 mph - N/A   Scattered Clouds
1:15 PM 95.4 °F 98.1 °F 65.3 °F 37% 29.95 in 10.0 mi ENE 6.9 mph - N/A   Scattered Clouds
1:35 PM 97.3 °F 100.5 °F 65.3 °F 35% 29.95 in 10.0 mi North 6.9 mph - N/A   Scattered Clouds
1:55 PM 99.0 °F 102.3 °F 65.1 °F 33% 29.94 in 10.0 mi North 5.8 mph - N/A   Scattered Clouds
2:15 PM 97.2 °F 99.6 °F 64.8 °F 34% 29.93 in 10.0 mi Calm Calm - N/A   Scattered Clouds
2:35 PM 99.0 °F 101.7 °F 64.6 °F 32% 29.92 in 10.0 mi NNW 3.5 mph - N/A   Scattered Clouds
2:55 PM 98.4 °F 100.7 °F 64.2 °F 32% 29.91 in 10.0 mi Calm Calm - N/A   Scattered Clouds
3:15 PM 97.2 °F 100.2 °F 65.5 °F 35% 29.91 in 10.0 mi WNW 15.0 mph 18.4 mph N/A   Mostly Cloudy
3:35 PM 93.6 °F 96.4 °F 65.7 °F 40% 29.90 in 10.0 mi WNW 6.9 mph - N/A   Mostly Cloudy
3:55 PM 97.9 °F 101.5 °F 65.7 °F 35% 29.89 in 10.0 mi NW 3.5 mph - N/A   Scattered Clouds
4:15 PM 98.1 °F 101.2 °F 64.9 °F 34% 29.89 in 10.0 mi North 6.9 mph - N/A   Clear
4:35 PM 97.9 °F 100.3 °F 64.6 °F 33% 29.88 in 10.0 mi NNW 3.5 mph - N/A   Clear
4:55 PM 97.9 °F 100.3 °F 63.9 °F 33% 29.88 in 10.0 mi Calm Calm - N/A   Clear
5:15 PM 98.2 °F 100.4 °F 63.5 °F 32% 29.87 in 10.0 mi NW 5.8 mph - N/A   Clear
5:35 PM 98.1 °F 100.1 °F 63.3 °F 32% 29.87 in 10.0 mi Calm Calm - N/A   Clear
5:55 PM 97.9 °F 99.8 °F 63.3 °F 32% 29.87 in 10.0 mi NNE 3.5 mph - N/A   Clear
6:15 PM 96.8 °F 98.5 °F 63.0 °F 33% 29.88 in 10.0 mi NNE 3.5 mph - N/A   Clear
6:35 PM 96.1 °F 97.8 °F 63.7 °F 34% 29.88 in 10.0 mi Calm Calm - N/A   Clear
6:55 PM 95.2 °F 97.3 °F 64.4 °F 36% 29.89 in 10.0 mi Calm Calm - N/A   Scattered Clouds
7:15 PM 94.1 °F 96.4 °F 64.6 °F 38% 29.90 in 10.0 mi Calm Calm - N/A   Clear
7:35 PM 91.8 °F 94.6 °F 66.4 °F 43% 29.90 in 10.0 mi NE 5.8 mph - N/A   Scattered Clouds
7:55 PM 91.4 °F 94.9 °F 67.1 °F 45% 29.91 in 10.0 mi East 6.9 mph - N/A   Scattered Clouds
8:15 PM 90.0 °F 93.6 °F 68.0 °F 48% 29.92 in 10.0 mi East 4.6 mph - N/A   Clear
8:35 PM 89.4 °F 93.1 °F 68.2 °F 49% 29.93 in 10.0 mi East 3.5 mph - N/A   Mostly Cloudy
8:55 PM 88.5 °F 92.3 °F 68.5 °F 51% 29.93 in 10.0 mi Calm Calm - N/A   Mostly Cloudy
9:15 PM 86.4 °F 91.1 °F 70.0 °F 58% 29.94 in 10.0 mi Calm Calm - N/A   Mostly Cloudy
9:35 PM 86.0 °F 90.7 °F 70.2 °F 59% 29.94 in 10.0 mi Calm Calm - N/A   Overcast
9:55 PM 87.8 °F 91.8 °F 68.9 °F 53% 29.96 in 10.0 mi South 4.6 mph - N/A Thunderstorm Mostly Cloudy
10:15 PM 84.6 °F 88.5 °F 69.3 °F 60% 29.97 in 10.0 mi South 6.9 mph - N/A   Overcast
10:35 PM 82.8 °F 86.4 °F 69.3 °F 64% 29.98 in 10.0 mi Calm Calm - N/A   Mostly Cloudy
10:55 PM 81.9 °F 85.2 °F 69.3 °F 65% 29.98 in 10.0 mi SE 3.5 mph - N/A   Scattered Clouds
11:15 PM 84.6 °F 88.5 °F 69.3 °F 60% 29.99 in 10.0 mi East 3.5 mph - N/A   Clear
11:35 PM 84.6 °F 88.5 °F 69.1 °F 60% 29.99 in 10.0 mi East 5.8 mph - N/A   Scattered Clouds
11:55 PM 84.2 °F 87.9 °F 68.9 °F 60% 29.99 in 10.0 mi East 5.8 mph - N/A   Scattered Clouds